Regional Weather Roundup
Issued by NWS

Home | Current Version | Previous Version | Graphics & Text | Print | Product List | Glossary On
Versions: 1 2 3 4 5 6 7 8 9 10 11 12 13 14 15 16 17 18 19 20 21 22 23 24 25 26 27 28 29 30 31 32 33 34 35 36 37 38 39 40 41 42 43 44 45 46 47 48 49 50
000
ASUS45 KCYS 271710
RWRWY

WYOMING REGIONAL WEATHER ROUNDUP
NATIONAL WEATHER SERVICE CHEYENNE WY
1100 AM MDT SUN JUL 27 2014

NOTE:  "FAIR" INDICATES FEW OR NO CLOUDS BELOW 12,000 FEET
WITH NO SIGNIFICANT WEATHER AND/OR OBSTRUCTIONS TO VISIBILITY.

WYZ001-271800-
YELLOWSTONE NATIONAL PARK

CITY           SKY/WX    TMP DP  RH WIND       PRES   REMARKS
LK YELLOWSTONE   N/A     61  32  33 VRB3      30.54S
W YELLOWSTONE  NOT AVBL

$$
WYZ002>013-054>058-071-098>099-271800-
NORTHERN WYOMING

CITY           SKY/WX    TMP DP  RH WIND       PRES   REMARKS
JACKSON        SUNNY     66  36  32 CALM      30.44F
CODY           NOT AVBL
GREYBULL       SUNNY     76  37  24 S5        30.32F
WORLAND        SUNNY     74  36  25 NW3       30.33F
SHERIDAN       SUNNY     76  43  30 E7        30.35F
BUFFALO        SUNNY     72  37  28 SE10      30.40F
GILLETTE       SUNNY     74  39  28 CALM      30.37S
NEWCASTLE      NOT AVBL

$$
WYZ014>020-022>026-101>103-271800-
CENTRAL WYOMING

CITY           SKY/WX    TMP DP  RH WIND       PRES   REMARKS
BIG PINEY      SUNNY     71  28  20 VRB6      30.48S
PINEDALE       SUNNY     72  32  23 CALM      30.49S
DUBOIS         FAIR      64  30  27 S3        30.49F
LANDER         SUNNY     74  36  25 MISG      30.39F
RIVERTON       SUNNY     72  36  26 E8        30.40F
CASPER         SUNNY     73  43  33 E7        30.39F
DOUGLAS        SUNNY     76  47  35 SE8       30.40S

$$
WYZ021-027>030-104>119-271800-
SOUTHERN WYOMING

CITY           SKY/WX    TMP DP  RH WIND       PRES   REMARKS
EVANSTON       SUNNY     77  30  17 E9        30.44S
ROCK SPRINGS   SUNNY     76  36  23 E9        30.44S
RAWLINS        SUNNY     73  43  33 VRB6      30.45S
LARAMIE        SUNNY     71  53  52 SE16G24   30.47S
CHEYENNE       CLOUDY    67  57  70 S9        30.45S
TORRINGTON     PTSUNNY   76  44  32 S8        30.36S

$$



USA.gov is the U.S. government's official web portal to all federal, state and local government web resources and services.